Location: Limerick
(52.6650°N, 8.6230°W)
Time: 21:00:30
(UTC+00:00)

ISS - Pass Details

Date: 09 November 2019
Orbit: 412 x 421 km, 51.6° (Epoch: 15 November)

Event Time Altitude Azimuth Distance (km) Brightness Sun altitude
Exits shadow 04:46:48 19° 120° (ESE) 1,085 -1.2 -27.1°
Drops below altitude 10° 04:47:52 10° 116° (ESE) 1,504 -0.3 -26.9°
Sets 04:49:59 0° 112° (ESE) 2,366 1.0 -26.6°
